Regional Weather Roundup
Issued by NWS

Home | Current Version | Previous Version | Text Only | Print | Product List | Glossary On
Versions: 1 2 3 4 5 6 7 8 9 10 11 12 13 14 15 16 17 18 19 20 21 22 23 24 25 26 27 28 29 30 31 32 33 34 35 36 37 38 39 40 41 42 43 44 45 46 47 48 49 50
000
ASUS43 KOAX 240310
RWRNE

WEATHER ROUNDUP FOR NEBRASKA
NATIONAL WEATHER SERVICE OMAHA NE
1000 PM CDT MON MAY 23 2022

NOTES: SATELLITE DATA IS BEING USED TO AUGMENT CLOUD COVER ABOVE
       12000 FEET.
       "FAIR" INDICATES FEW OR NO CLOUDS BELOW 12,000 FEET WITH NO
       SIGNIFICANT WEATHER AND/OR OBSTRUCTIONS TO VISIBILITY.


NEZ001>004-019>022-054>056-240400-
NEBRASKA PANHANDLE

CITY           SKY/WX    TMP DP  RH WIND       PRES   REMARKS
SCOTTSBLUFF    CLEAR     45  41  86 E7        30.09R
ALLIANCE       CLOUDY    44  42  93 SE7       30.10R
CHADRON        CLEAR     42  38  85 SE8       30.09R
GORDON         CLOUDY    45  40  83 S7        30.10S
KIMBALL        MOCLDY    40  39  96 E8        30.08S
SIDNEY         CLOUDY    45  42  89 E13       30.07R
$$

NEZ057>060-069>072-079>082-240400-
SOUTHWEST NEBRASKA

CITY           SKY/WX    TMP DP  RH WIND       PRES   REMARKS
NORTH PLATTE   CLOUDY    48  44  86 E7        30.12S
IMPERIAL       PTCLDY    45  43  93 E12       30.09S
LEXINGTON      MOCLDY    46  44  95 E7        30.13S
MCCOOK         CLEAR     45  42  89 E7        30.11R
OGALLALA       CLOUDY    47  45  92 E9        30.11R
$$

NEZ005>010-023>029-035>040-094-240400-
NORTH CENTRAL NEBRASKA

CITY           SKY/WX    TMP DP  RH WIND       PRES   REMARKS
VALENTINE      CLOUDY    48  43  82 S5        30.15S
AINSWORTH      DRIZZLE   46  43  88 CALM      30.17R
BROKEN BOW     CLOUDY    48  45  89 NE5       30.14R
O`NEILL        CLOUDY    50  44  80 W6        30.17R
ORD            CLOUDY    50  47  89 W3        30.15R
THEDFORD       CLOUDY    44  42  93 SE3       30.15R
$$

NEZ041-046>049-061>064-073>077-083>087-240400-
SOUTH CENTRAL NEBRASKA

CITY           SKY/WX    TMP DP  RH WIND       PRES   REMARKS
GRAND ISLAND   CLOUDY    52  45  77 NW3       30.15S
AURORA         CLOUDY    54  45  70 CALM      30.15S
HASTINGS       LGT RAIN  50  46  86 CALM      30.15S
HEBRON         LGT RAIN  53  47  79 N3        30.13S
HOLDREGE       PTCLDY    47  44  88 E13       30.11F
KEARNEY        CLOUDY    50  47  89 E7        30.14F
YORK           CLOUDY    54  43  66 E5        30.14R
$$

NEZ011>018-030>034-042>045-240400-
NORTHEAST NEBRASKA

CITY           SKY/WX    TMP DP  RH WIND       PRES   REMARKS
NORFOLK        MOCLDY    54  38  54 SE5       30.15R
ALBION         CLOUDY    52  40  65 CALM      30.15S
BLAIR          CLOUDY    56  39  52 E6        30.16S
COLUMBUS       CLOUDY    56  36  47 E5        30.16R
FREMONT        MOCLDY    59  39  46 E6        30.16S
TEKAMAH        CLOUDY    59  38  45 E9        30.16S
WAYNE          MOCLDY    58  37  45 SE7       30.16R
$$

NEZ050>053-065>068-078-088>093-240400-
SOUTHEAST NEBRASKA

CITY           SKY/WX    TMP DP  RH WIND       PRES   REMARKS
LINCOLN        CLOUDY    60  38  43 E8        30.14F
OMAHA EPPLEY   CLOUDY    60  39  45 CALM      30.16S
BEATRICE       CLOUDY    59  40  49 E8        30.12F
FALLS CITY     MOCLDY    58  41  53 NE7       30.12R
NEBRASKA CITY  CLOUDY    57  40  52 NE6       30.15S
PLATTSMOUTH    CLOUDY    58  37  46 E6        30.16S
$$

NEZ044-045-051>053-067-240400-
OMAHA AREA

CITY           SKY/WX    TMP DP  RH WIND       PRES   REMARKS
OMAHA EPPLEY   CLOUDY    60  39  45 CALM      30.16S
BLAIR          CLOUDY    56  39  52 E6        30.16S
FREMONT        MOCLDY    59  39  46 E6        30.16S
MILLARD        CLOUDY    60  37  42 E3        30.16S
OFFUTT AFB     MOCLDY    58  36  43 E3        30.18S
PLATTSMOUTH    CLOUDY    58  37  46 E6        30.16S
WAHOO          PTCLDY    57  37  46 E8        30.15S
$$



USA.gov is the U.S. government's official web portal to all federal, state and local government web resources and services.